Wind_Speed
28 29 29 30 31 31 32 32 32 32 33 33 33 32 32 33 33 33 33 33 34 34 35 35 36 36 36 36 35 35 35 35 35 35 35 35 35 35 34 34 34 33 33
29 30 30 31 32 32 33 33 33 34 34 34 34 33 33 34 34 35 36 36 35 36 36 36 37 37 37 37 37 37 37 37 36 37 37 37 36 36 36 36 36 36 36
29 31 31 31 32 33 33 34 34 35 35 35 35 36 36 36 36 37 38 38 37 37 37 38 38 38 38 39 39 39 39 39 38 39 38 38 38 38 38 38 38 37 37
30 31 32 32 32 32 33 33 34 35 36 36 37 37 37 38 38 38 39 39 39 39 39 39 39 40 40 40 40 41 41 41 41 40 39 39 40 40 40 40 40 39 39
31 31 31 32 32 32 33 33 33 34 35 36 37 38 38 39 39 39 39 40 40 40 40 40 40 41 41 41 42 42 42 42 43 43 42 42 42 42 41 41 41 40 40
31 31 31 32 32 32 33 33 35 35 36 36 37 38 38 39 40 40 39 39 40 40 40 41 41 41 42 43 43 43 43 44 44 45 45 45 44 43 42 42 41 40 40
32 32 32 32 32 33 34 34 35 35 35 36 37 37 38 39 39 40 40 40 41 41 40 40 40 41 42 43 44 45 45 45 45 46 45 45 44 43 42 42 42 43 42
32 32 31 32 32 33 34 34 35 35 36 36 37 37 37 38 39 40 40 40 40 41 41 41 42 42 42 43 44 45 45 46 45 45 45 45 44 44 43 43 44 44 44
33 33 33 32 33 33 34 35 35 36 36 37 37 37 38 38 39 39 41 41 41 42 42 42 42 42 42 42 42 43 44 45 45 45 44 44 44 45 45 45 45 45 44
33 33 34 33 34 34 35 35 36 37 37 37 38 38 39 39 39 39 40 41 41 41 41 41 41 41 41 41 41 41 42 43 43 44 44 43 44 44 46 46 46 45 44
35 34 34 34 34 35 36 37 38 38 38 38 38 39 39 39 39 39 39 40 40 40 39 39 39 40 41 41 41 41 41 41 41 42 43 42 43 43 44 46 46 46 46
36 36 36 35 35 35 36 37 38 39 39 39 40 39 39 39 38 38 38 38 38 38 39 39 39 40 40 40 41 40 39 39 40 42 42 42 42 43 43 44 45 45 46
36 36 37 37 37 37 38 39 39 39 39 39 39 39 39 39 39 39 38 38 38 38 38 38 39 40 40 39 39 39 39 40 40 40 41 42 42 43 44 44 44 45 46
37 37 37 38 39 40 40 39 39 40 39 39 38 38 38 39 39 40 39 39 39 38 39 39 39 39 39 39 39 39 39 40 40 41 41 41 42 43 44 44 44 45 46
38 38 38 39 39 40 40 40 40 39 39 38 38 38 39 38 39 39 39 39 39 39 39 39 38 39 39 39 40 40 40 40 40 41 42 42 42 43 44 45 46 47 47
39 40 40 40 40 40 40 40 40 39 38 38 38 38 38 38 39 39 39 38 39 39 39 39 39 39 39 40 41 42 43 42 42 42 42 43 44 44 44 46 48 48 48
40 40 41 41 40 40 41 40 40 39 39 39 39 39 39 39 39 39 40 39 39 40 39 39 40 41 41 42 42 43 43 44 44 44 45 45 46 46 46 48 48 49 49
39 40 40 40 41 41 41 41 41 41 41 41 41 41 41 41 41 41 41 41 41 41 41 41 41 42 42 43 42 43 43 44 45 45 45 46 47 47 48 49 49 50 50
39 39 40 40 41 42 42 42 42 42 42 41 41 42 41 41 41 41 41 41 41 41 41 41 41 42 43 43 43 43 44 45 45 45 46 46 46 47 48 49 49 49 50
39 40 40 41 42 42 42 42 42 42 42 42 42 42 41 41 41 41 41 40 41 41 41 40 41 41 42 43 44 45 45 46 46 47 47 47 47 48 48 48 49 50 50
40 41 41 42 42 42 42 42 42 42 42 42 42 42 41 41 41 41 40 40 40 41 41 41 41 41 42 43 44 45 45 46 47 47 47 48 48 48 47 47 48 50 51
41 42 42 42 42 42 42 42 42 42 42 42 42 42 42 41 40 40 40 40 40 40 40 41 41 41 42 42 43 43 44 44 45 45 46 46 47 47 47 48 48 49 50
41 42 43 43 43 43 43 43 43 43 43 42 42 41 41 41 41 40 41 40 40 40 41 41 41 41 41 41 41 42 43 44 44 45 45 45 46 47 47 48 49 49 50
42 43 43 44 44 44 44 44 43 43 43 43 42 42 41 41 40 41 41 40 40 40 41 41 41 41 41 41 41 42 42 43 43 44 44 44 44 45 46 47 48 48 48
43 43 44 44 45 44 44 44 43 43 43 43 43 42 42 41 41 40 40 40 40 40 40 41 41 41 41 41 41 42 42 42 42 42 43 44 44 44 44 45 46 46 47
44 44 44 45 44 44 44 44 43 43 43 42 41 41 41 41 40 40 39 39 39 40 40 40 40 40 40 41 41 41 41 41 41 41 41 42 43 43 43 43 45 45 46
Wind_Direction
272 274 276 277 277 276 276 277 278 277 277 277 276 276 276 275 274 274 274 274 274 274 273 273 273 273 273 274 274 274 275 276 277 277 277 276 276 276 276 276 276 277 278
273 274 275 277 278 278 278 278 277 277 276 276 276 276 276 276 276 275 274 274 274 274 274 274 274 273 273 273 273 274 274 275 276 276 276 276 276 275 275 275 275 275 276
274 275 276 278 279 279 278 278 277 277 277 276 275 275 276 276 276 276 275 274 274 274 275 274 274 273 273 273 273 273 274 274 275 275 275 275 275 274 274 274 274 274 275
275 276 278 278 279 280 279 280 279 278 277 277 276 276 276 275 275 276 275 273 273 273 274 274 273 273 273 273 274 274 274 273 273 274 275 275 274 273 273 273 273 273 275
274 276 277 279 279 280 281 280 281 281 281 280 278 277 276 276 275 276 276 274 273 273 272 273 273 273 272 273 273 274 273 273 272 272 273 273 273 273 273 272 272 273 274
274 276 278 280 280 280 281 281 281 282 281 280 279 278 277 276 276 276 276 275 273 272 272 273 273 274 273 272 271 272 272 272 272 272 272 272 272 271 272 272 272 272 273
274 275 277 279 280 280 281 282 282 282 282 281 281 280 279 278 277 275 276 275 273 272 273 274 274 275 274 273 272 272 271 271 271 270 269 269 269 269 270 270 271 272 272
275 276 276 277 279 281 282 283 284 283 283 283 283 281 280 279 277 275 276 276 275 274 274 275 276 276 275 274 273 272 272 271 270 269 267 267 267 267 268 270 270 272 272
273 274 275 277 278 280 281 283 284 284 285 284 283 283 282 280 277 276 276 275 276 276 275 275 276 276 276 275 274 274 273 271 270 268 267 267 267 266 267 269 270 273 273
273 274 275 277 278 281 282 283 283 284 285 285 285 284 283 281 279 278 277 277 276 276 276 275 275 276 276 276 275 273 272 271 271 268 268 268 268 268 267 268 269 271 271
275 276 277 279 281 282 283 284 284 284 285 285 285 285 284 282 281 280 279 278 277 278 278 278 276 276 276 276 275 274 272 272 271 270 269 270 269 269 268 267 268 270 271
276 277 278 279 281 283 284 285 285 284 285 285 285 285 284 283 282 282 281 280 279 278 278 279 277 277 277 277 277 275 274 273 273 272 270 271 270 269 268 267 268 269 269
277 279 280 280 281 283 285 285 285 285 286 285 286 286 285 283 282 282 282 282 280 278 278 279 278 278 279 279 278 276 275 274 273 272 272 272 271 270 269 269 269 269 269
277 279 280 281 282 283 285 286 286 286 286 286 286 287 286 285 283 282 282 281 280 280 278 278 279 279 280 279 278 278 276 275 274 274 273 273 272 270 270 270 270 270 270
277 278 280 282 283 284 285 286 286 286 286 286 286 287 286 286 284 283 283 282 280 279 278 278 278 279 279 279 278 277 278 277 276 275 274 274 273 272 272 271 271 271 271
278 279 281 282 284 284 285 286 286 286 285 286 287 287 286 286 285 283 282 281 281 280 279 277 278 278 278 279 278 277 277 278 277 276 275 275 274 274 274 274 273 272 272
279 280 282 283 283 284 285 286 285 285 285 285 286 286 286 285 284 283 282 281 281 281 280 279 278 278 277 278 277 277 277 277 277 276 275 275 275 274 274 274 274 273 273
280 281 282 283 284 285 286 286 285 285 284 285 285 286 286 285 284 283 282 281 280 280 280 279 279 278 277 278 278 277 277 277 278 278 277 277 276 275 275 275 275 274 274
280 281 282 284 285 285 286 286 285 284 284 284 285 285 285 284 285 284 283 282 280 280 281 280 279 279 278 278 278 278 278 278 279 279 279 278 278 277 276 276 276 275 274
280 281 282 283 284 286 286 286 285 285 284 284 285 284 283 283 283 283 283 282 281 281 281 281 281 281 281 280 279 278 279 279 279 280 280 280 279 278 277 277 276 275 275
280 281 282 283 285 286 286 285 285 285 285 284 284 283 283 283 283 282 282 282 281 281 281 282 282 282 282 282 281 280 279 279 279 280 280 280 280 279 278 278 278 277 277
280 281 282 283 284 285 285 285 285 284 284 284 283 282 282 282 281 281 282 282 282 282 282 283 283 283 283 283 283 283 282 281 281 281 281 281 280 280 279 279 279 279 279
279 281 282 284 284 285 285 284 284 284 284 284 284 283 282 281 280 280 281 281 282 282 282 283 283 284 284 284 284 284 284 283 283 282 282 282 281 281 281 281 281 281 281
280 281 283 284 285 286 285 285 284 283 284 284 283 283 282 281 280 280 281 282 282 283 283 284 284 285 285 285 285 285 285 285 285 284 283 283 283 283 283 283 283 283 282
280 282 283 284 285 285 285 285 284 283 283 284 283 282 281 281 280 280 281 281 282 282 284 284 284 285 286 286 287 287 287 286 286 286 285 285 285 285 285 285 284 284 283
281 282 283 284 285 285 284 284 283 283 283 283 282 281 281 280 280 280 280 281 282 283 285 285 286 286 287 287 288 288 288 288 288 288 287 287 287 286 285 285 285 284 284
Height
5828 5828 5828 5827 5827 5826 5825 5825 5824 5823 5822 5821 5820 5819 5818 5817 5817 5816 5815 5815 5814 5813 5812 5812 5811 5811 5810 5809 5809 5808 5807 5807 5806 5805 5804 5804 5803 5802 5802 5801 5800 5799 5799
5822 5822 5821 5820 5820 5819 5818 5817 5816 5815 5814 5814 5813 5812 5811 5810 5809 5808 5808 5807 5806 5805 5805 5804 5803 5802 5802 5801 5800 5800 5799 5799 5798 5797 5796 5795 5794 5794 5793 5793 5792 5792 5791
5815 5815 5814 5814 5813 5811 5811 5810 5809 5808 5807 5806 5805 5804 5803 5802 5801 5800 5799 5798 5798 5797 5796 5795 5794 5794 5793 5792 5791 5791 5790 5790 5789 5788 5787 5786 5786 5785 5784 5784 5784 5783 5782
5808 5808 5807 5806 5805 5804 5803 5802 5801 5800 5798 5797 5796 5795 5794 5793 5792 5791 5790 5789 5789 5788 5787 5786 5785 5784 5784 5783 5782 5781 5781 5780 5779 5778 5777 5777 5776 5776 5775 5775 5775 5774 5774
5801 5801 5800 5799 5798 5797 5795 5794 5793 5791 5790 5788 5787 5786 5785 5784 5783 5782 5781 5780 5779 5778 5777 5776 5775 5775 5774 5773 5772 5771 5771 5770 5769 5768 5768 5767 5767 5766 5766 5765 5765 5765 5764
5794 5793 5793 5792 5790 5789 5788 5786 5785 5783 5781 5779 5778 5777 5776 5774 5774 5773 5771 5770 5769 5768 5767 5766 5766 5764 5763 5762 5762 5761 5760 5759 5758 5758 5757 5757 5756 5756 5755 5755 5755 5755 5755
5786 5786 5785 5784 5782 5781 5779 5778 5776 5774 5772 5770 5769 5767 5766 5765 5764 5763 5761 5760 5759 5758 5757 5756 5755 5754 5752 5751 5750 5749 5748 5747 5746 5746 5746 5746 5746 5746 5745 5745 5745 5745 5745
5779 5777 5777 5776 5774 5773 5771 5769 5767 5765 5763 5761 5760 5758 5757 5756 5753 5752 5751 5750 5749 5748 5747 5746 5744 5743 5741 5740 5738 5737 5735 5735 5734 5734 5734 5734 5734 5735 5734 5735 5735 5735 5734
5771 5769 5768 5767 5766 5765 5763 5761 5759 5757 5755 5752 5750 5749 5747 5746 5744 5743 5741 5739 5738 5737 5736 5735 5733 5732 5730 5729 5727 5726 5724 5723 5723 5722 5722 5723 5723 5723 5723 5723 5724 5724 5724
5763 5762 5761 5759 5758 5756 5754 5752 5750 5748 5746 5743 5741 5739 5738 5736 5734 5733 5732 5729 5728 5727 5726 5724 5723 5721 5719 5717 5716 5715 5713 5712 5711 5711 5711 5711 5711 5711 5712 5712 5712 5712 5712
5755 5753 5752 5751 5749 5747 5745 5743 5741 5739 5736 5734 5732 5730 5728 5726 5724 5723 5722 5720 5718 5717 5715 5714 5712 5711 5709 5707 5706 5704 5703 5701 5701 5700 5700 5700 5700 5700 5699 5699 5700 5700 5700
5746 5745 5744 5742 5741 5739 5737 5735 5732 5730 5727 5725 5723 5720 5718 5716 5715 5713 5712 5711 5709 5707 5706 5704 5702 5700 5698 5697 5695 5694 5692 5691 5690 5689 5689 5689 5689 5688 5688 5688 5687 5688 5688
5738 5737 5735 5734 5732 5730 5728 5726 5723 5721 5718 5715 5713 5711 5708 5707 5705 5703 5702 5700 5699 5698 5696 5694 5692 5690 5688 5686 5684 5683 5681 5680 5680 5679 5678 5678 5677 5677 5676 5676 5676 5676 5676
5729 5728 5726 5725 5723 5721 5719 5717 5714 5711 5708 5706 5704 5701 5699 5697 5695 5693 5692 5690 5689 5688 5686 5684 5682 5679 5677 5675 5674 5672 5671 5670 5669 5668 5667 5666 5666 5665 5665 5664 5664 5664 5663
5720 5719 5717 5716 5714 5712 5710 5707 5705 5702 5699 5697 5694 5692 5690 5687 5685 5683 5681 5680 5678 5677 5676 5674 5671 5669 5667 5665 5663 5662 5660 5659 5658 5656 5655 5655 5654 5653 5653 5652 5651 5651 5651
5711 5709 5708 5706 5704 5702 5700 5698 5695 5692 5690 5688 5685 5682 5680 5678 5675 5673 5671 5669 5667 5666 5665 5664 5661 5659 5656 5654 5652 5651 5649 5648 5647 5645 5644 5643 5642 5641 5640 5639 5639 5638 5637
5701 5699 5698 5696 5694 5692 5690 5688 5685 5682 5680 5678 5675 5673 5670 5667 5665 5663 5660 5658 5656 5654 5653 5652 5650 5647 5645 5643 5641 5639 5638 5636 5635 5633 5632 5630 5629 5628 5627 5626 5625 5625 5624
5690 5689 5687 5685 5684 5682 5679 5677 5674 5672 5670 5667 5665 5662 5660 5657 5655 5652 5650 5647 5645 5643 5642 5640 5638 5636 5633 5631 5629 5627 5626 5624 5622 5620 5618 5617 5616 5615 5614 5613 5612 5611 5610
5680 5678 5677 5675 5673 5671 5668 5666 5663 5661 5658 5656 5653 5651 5648 5646 5643 5641 5638 5636 5634 5632 5630 5628 5626 5624 5621 5619 5617 5615 5613 5611 5610 5607 5605 5604 5602 5601 5600 5599 5597 5596 5595
5670 5668 5666 5664 5662 5659 5657 5654 5652 5649 5647 5644 5642 5639 5637 5634 5632 5629 5627 5624 5622 5620 5618 5616 5614 5612 5609 5606 5604 5602 5600 5598 5596 5594 5592 5590 5588 5586 5585 5584 5583 5582 5580
5659 5657 5655 5653 5650 5648 5646 5643 5640 5638 5635 5633 5630 5628 5625 5622 5620 5617 5615 5613 5610 5608 5606 5604 5602 5600 5597 5594 5592 5589 5587 5585 5583 5580 5578 5576 5574 5572 5570 5569 5568 5566 5565
5648 5646 5644 5641 5639 5636 5634 5631 5628 5626 5623 5621 5618 5616 5613 5611 5608 5606 5604 5601 5599 5597 5595 5592 5590 5587 5585 5582 5579 5576 5574 5572 5570 5568 5565 5562 5560 5558 5556 5554 5553 5551 5549
5636 5634 5632 5629 5627 5624 5622 5619 5616 5614 5611 5609 5606 5604 5601 5599 5597 5595 5592 5590 5588 5585 5583 5581 5578 5575 5573 5570 5567 5564 5561 5559 5557 5554 5551 5549 5546 5544 5541 5539 5537 5535 5533
5624 5622 5620 5617 5615 5612 5609 5606 5604 5601 5599 5597 5594 5592 5590 5588 5585 5583 5581 5579 5576 5574 5571 5569 5566 5563 5560 5558 5555 5552 5549 5546 5543 5540 5538 5536 5533 5530 5527 5524 5522 5519 5517
5612 5610 5607 5605 5602 5600 5597 5594 5591 5589 5587 5584 5582 5580 5578 5576 5574 5572 5570 5567 5565 5562 5560 5557 5554 5551 5549 5546 5543 5540 5537 5534 5531 5528 5525 5522 5520 5517 5514 5511 5507 5505 5502
5599 5597 5595 5592 5590 5587 5584 5582 5579 5577 5575 5572 5570 5568 5566 5564 5562 5559 5558 5556 5554 5552 5549 5546 5543 5540 5537 5534 5531 5529 5525 5522 5519 5517 5513 5510 5507 5504 5503 5500 5495 5491 5488